Starlink 30272

operational
NORAD ID: 57860 Int'l Des: 2023-141 Owner: SPXS Country: US Constellation: starlink
LEOCIRCULAR

Über Starlink 30272

Beschreibung wird geladen...

Live-Position

3D-Globus wird geladen...

Nächste Überflüge

Höhenverlauf

Altitude vs Time

uPlot chart will show altitude changes over time

Zweizeiliger Elementsatz

1 57860U 23141W 26034.30477135 -.00000148 00000-0 71209-5 0 9990
2 57860 53.1591 83.8244 0000948 105.0887 255.0219 15.30193284135066
Epoch: 3. Feb. 2026 • Age: 24 hours

Aktueller Status

Höhe 478.7 km
Geschwindigkeit 7.63 km/s
Subsatellitenpunkt 41.49°N, 120.06°W
Startdatum 12. Sept. 2023
Alter 2.3 years
Typ internet

Technische Details

Klassifizierung Payload
Masse 730.00 kg
Trockenmasse 700.00 kg
Gesamtmasse 730.00 kg
Länge 0.30 m
Durchmesser 4.10 m
Spannweite 29.00 m
Form Box + pan
Hersteller SPXS
Bus-Typ Starlink V2M
Phasenstatus In Orbit
Besitzer/Staat SPXS/US

Große Konstellationen

Loading constellations...